Location: Unspecified
(0.0000°N, 0.0000°E)
Time: 02:31:47
(UTC+00:00)

Tiangong 2 - Visible Passes

Search period start: 12 December 2018 00:00
Search period end: 22 December 2018 00:00
Orbit: 382 x 391 km, 42.8° (Epoch: 11 December)

Date Brightness Start Highest point End Pass type
(mag) Time Alt. Az. Time Alt. Az. Time Alt. Az.
12 Dec 2.1 18:46:01 10° WSW 18:49:00 39° NW 18:51:13 15° NNE visible
14 Dec 2.4 05:17:54 10° NNW 05:20:52 36° NE 05:23:51 10° ESE visible
14 Dec 3.8 18:26:26 10° W 18:28:13 14° NW 18:30:00 10° N visible
15 Dec 3.6 04:21:39 14° NE 04:22:08 14° NE 04:23:58 10° E visible
16 Dec 1.1 04:58:21 24° WNW 05:00:02 65° SW 05:03:13 10° SE visible
17 Dec 3.4 04:02:44 24° E 04:02:44 24° E 04:04:19 10° ESE visible
18 Dec 2.8 04:39:21 21° SW 04:39:21 21° SW 04:41:43 10° S visible
